Weather History for KPIE - November, 2011

Change the Weather History Date:

Sunday, November 20, 2011

  Actual Average Record
Temperature  
Mean Temperature 76 °F -  
Max Temperature 84 °F 76 °F 84 °F (2011)
Min Temperature 68 °F 63 °F 40 °F (1951)
Cooling Degree Days 11    
Growing Degree Days 26 (Base 50)    
Moisture  
Dew Point 66 °F    
Average Humidity 75    
Maximum Humidity 90    
Minimum Humidity 49    
Precipitation  
Precipitation 0.00 in - - ()
Sea Level Pressure  
Sea Level Pressure 30.22 in    
Wind  
Wind Speed 8 mph (ENE)    
Max Wind Speed 13 mph    
Max Gust Speed -    
Visibility 10 miles    
Events      
Averages and records for this station are not official NWS values.
T = Trace of Precipitation, MM = Missing Value Source: NWS Daily Summary

Daily Weather History Graph

Daily Weather History Graph

Search for Another Location

Airport or City:

Trip Planner

Search our weather history database for the weather conditions in past years. The results will help you decide how hot, cold, wet, or windy it might be!

Date:

Astronomy

Nov. 20, 2011 Rise Set
Actual Time 6:55 AM EST 5:36 PM EST
Civil Twilight 6:30 AM EST 6:01 PM EST
Nautical Twilight 6:02 AM EST 6:30 PM EST
Astronomical Twilight 5:34 AM EST 6:58 PM EST
Moon 1:47 AM EST (11/20) 2:03 PM EST (11/20)
Length of Visible Light 11h 30m
Length of Day
10h 40m
Waning Crescent, 27% of the Moon is Illuminated
Nov 20
Waning Crescent
Nov 25
New
Dec 2
First Quarter
Dec 10
Full
Dec 17
Last Quarter

Hourly Weather History & Observations

Time (EST) Temp. Heat Index Dew Point Humidity Pressure Visibility Wind Dir Wind Speed Gust Speed Precip Events Conditions
12:53 AM 71.1 °F - 66.0 °F 84% 30.21 in 10.0 mi East 6.9 mph - N/A   Clear
1:53 AM 70.0 °F - 66.0 °F 87% 30.21 in 10.0 mi NE 6.9 mph - N/A   Clear
2:53 AM 69.8 °F - 66.2 °F 88% 30.20 in 10.0 mi ENE 6.9 mph - N/A   Clear
3:53 AM 69.1 °F - 64.9 °F 87% 30.21 in 10.0 mi ENE 8.1 mph - N/A   Clear
4:53 AM 69.1 °F - 64.9 °F 87% 30.20 in 10.0 mi ENE 5.8 mph - N/A   Clear
5:53 AM 68.0 °F - 64.9 °F 90% 30.22 in 10.0 mi East 8.1 mph - N/A   Clear
6:53 AM 69.8 °F - 64.4 °F 83% 30.24 in 10.0 mi ENE 6.9 mph - N/A   Clear
7:53 AM 70.0 °F - 66.0 °F 87% 30.25 in 10.0 mi East 5.8 mph - N/A   Clear
8:53 AM 73.9 °F - 68.0 °F 82% 30.25 in 10.0 mi East 9.2 mph - N/A   Clear
9:53 AM 75.9 °F - 68.0 °F 76% 30.26 in 10.0 mi East 8.1 mph - N/A   Clear
10:53 AM 79.0 °F - 68.0 °F 69% 30.25 in 10.0 mi ENE 9.2 mph - N/A   Clear
11:53 AM 80.1 °F 82.7 °F 68.0 °F 67% 30.23 in 10.0 mi East 6.9 mph - N/A   Partly Cloudy
12:53 PM 82.0 °F 84.5 °F 66.9 °F 60% 30.21 in 10.0 mi East 8.1 mph - N/A   Clear
1:53 PM 84.0 °F 86.3 °F 66.0 °F 55% 30.19 in 10.0 mi East 8.1 mph - N/A   Partly Cloudy
2:53 PM 84.0 °F 84.9 °F 63.0 °F 49% 30.18 in 10.0 mi East 9.2 mph - N/A   Clear
3:53 PM 82.9 °F 84.6 °F 64.9 °F 54% 30.17 in 10.0 mi East 5.8 mph - N/A   Clear
4:53 PM 80.1 °F 82.1 °F 66.0 °F 62% 30.18 in 10.0 mi ENE 8.1 mph - N/A   Partly Cloudy
5:53 PM 78.8 °F - 64.4 °F 61% 30.19 in 10.0 mi ENE 10.4 mph - N/A   Clear
6:53 PM 77.0 °F - 66.0 °F 69% 30.21 in 10.0 mi East 6.9 mph - N/A   Clear
7:53 PM 75.0 °F - 66.0 °F 73% 30.23 in 10.0 mi ENE 12.7 mph - N/A   Clear
8:53 PM 70.0 °F - 66.0 °F 87% 30.24 in 10.0 mi East 8.1 mph - N/A   Clear
9:53 PM 73.0 °F - 64.9 °F 76% 30.25 in 10.0 mi East 8.1 mph - N/A   Clear
10:53 PM 73.0 °F - 66.0 °F 79% 30.25 in 10.0 mi East 8.1 mph - N/A   Clear
11:53 PM 72.0 °F - 64.9 °F 78% 30.23 in 10.0 mi East 9.2 mph - N/A   Clear